This demonstration page uses our WeatherBlox Daily Observations layout. Learn more.

Left ArrowRight Arrow

34.02893, -84.19858

Hourly Observations for July 31, 2021

Temp ( °F °C ) Dew Point ( °F °C ) Humidity (%) Winds ( mph kmh ) Pressure ( in mb ) Visibility ( mi km ) Precip ( " mm )
12:53 am 00:53 Clear 78 25.6 71 21.7 79 79 Calm 29.95 1014 10 16 0.00 0.00
1:53 am 01:53 Clear 78 25.6 71 21.7 79 79 NW 3 6 29.94 1014 10 16 0.00 0.00
2:53 am 02:53 Mostly Clear 77 25 72 22.2 85 85 WSW 3 6 29.93 1014 10 16 0.00 0.00
3:53 am 03:53 Clear 76 24.4 72 22.2 88 88 WSW 5 7 29.92 1013 10 16 0.00 0.00
4:53 am 04:53 Clear 75 23.9 72 22.2 90 90 WNW 3 6 29.92 1013 10 16 0.00 0.00
5:53 am 05:53 Clear 74 23.3 71 21.7 91 91 NW 3 6 29.94 1014 10 16 0.00 0.00
6:53 am 06:53 Sunny 74 23.3 71 21.7 91 91 WNW 3 6 29.96 1015 10 16 0.00 0.00
7:53 am 07:53 Sunny 75 23.9 72 22.2 90 90 NW 7 11 29.98 1015 10 16 0.00 0.00
8:53 am 08:53 Partly Cloudy 78 25.6 73 22.8 85 85 WNW 5 7 29.97 1015 10 16 0.00 0.00
9:53 am 09:53 Sunny 81 27.2 73 22.8 77 77 NW 5 7 29.97 1015 10 16 0.00 0.00
10:53 am 10:53 Sunny 86 30 75 23.9 70 70 VRB 3 6 29.96 1015 10 16 0.00 0.00
11:53 am 11:53 Sunny 88 31.1 73 22.8 61 61 NNW 6 9 29.95 1014 10 16 0.00 0.00
12:53 pm 12:53 Mostly Sunny 90 32.2 73 22.8 58 58 VRB 3 6 29.95 1014 10 16 0.00 0.00
1:53 pm 13:53 Mostly Sunny 91 32.8 73 22.8 56 56 VRB 5 7 29.94 1014 10 16 0.00 0.00
2:53 pm 14:53 Partly Cloudy 90 32.2 74 23.3 59 59 NNW 12 19 29.94 1014 10 16 0.00 0.00
3:53 pm 15:53 Mostly Cloudy 90 32.2 73 22.8 58 58 W 12 19 29.94 1014 10 16 0.00 0.00
4:53 pm 16:53 Sunny 90 32.2 72 22.2 56 56 WSW 7 11 29.91 1013 10 16 0.00 0.00
5:53 pm 17:53 Sunny 90 32.2 72 22.2 56 56 NW 7 11 29.90 1013 10 16 0.00 0.00
6:53 pm 18:53 Mostly Sunny 87 30.6 72 22.2 61 61 NNW 6 9 29.91 1013 10 16 0.00 0.00
7:53 pm 19:53 Mostly Cloudy 86 30 73 22.8 65 65 W 6 9 29.93 1014 9 14 0.00 0.00
8:07 pm 20:07 Partly Cloudy 85 29.4 73 22.8 68 68 WSW 7 11 29.94 1014 9 14 0.00 0.00
8:53 pm 20:53 Clear 84 28.9 74 23.3 72 72 W 8 13 29.90 1012 10 16 0.00 0.00
9:53 pm 21:53 Clear 82 27.8 74 23.3 77 77 NW 5 7 29.88 1012 10 16 0.00 0.00
10:53 pm 22:53 Clear 81 27.2 74 23.3 79 79 NW 8 13 29.88 1012 10 16 0.00 0.00
11:53 pm 23:53 Clear 80 26.7 75 23.9 85 85 W 6 9 29.90 1013 9 14 0.00 0.00

Powered by AerisWeather